This is the latest recevied weather packets stored in our database for station/object K1AWR. If no packets are shown the sender has not sent any weather packets the latest 10 day(s).
| Time | Temp. | Humidity | Pressure | Rain* | Wind** | Luminosity | Snow |
|---|---|---|---|---|---|---|---|
| 1777229552 | 18.33° C | 47% | 1019.8 hPa | 0 mm | - | 661 W/m² | - |
| 1777229249 | 18.33° C | 43% | 1019.7 hPa | 0 mm | - | 664 W/m² | - |
| 1777228947 | 18.33° C | 42% | 1019.8 hPa | 0 mm | - | 675 W/m² | - |
| 1777228642 | 17.78° C | 48% | 1019.6 hPa | 0 mm | - | 683 W/m² | - |
| 1777228338 | 17.78° C | 50% | 1019.8 hPa | 0 mm | - | 696 W/m² | - |
| 1777228035 | 17.22° C | 45% | 1019.9 hPa | 0 mm | - | 700 W/m² | - |
| 1777227734 | 17.22° C | 47% | 1019.8 hPa | 0 mm | - | 708 W/m² | - |
| 1777227430 | 16.67° C | 46% | 1019.9 hPa | 0 mm | - | 716 W/m² | - |
| 1777227126 | 17.78° C | 48% | 1020 hPa | 0 mm | - | 721 W/m² | - |
| 1777226823 | 17.22° C | 51% | 1020 hPa | 0 mm | - | 729 W/m² | - |
| 1777226521 | 17.22° C | 48% | 1020.1 hPa | 0 mm | - | 734 W/m² | - |
| 1777226218 | 17.22° C | 46% | 1020 hPa | 0 mm | - | 746 W/m² | - |
| 1777225914 | 18.33° C | 47% | 1020.3 hPa | 0 mm | - | 759 W/m² | - |
| 1777225610 | 17.78° C | 50% | 1020.3 hPa | 0 mm | - | 786 W/m² | - |
| 1777225307 | 17.78° C | 47% | 1020.1 hPa | 0 mm | - | 185 W/m² | - |
| 1777225004 | 16.67° C | 52% | 1020.4 hPa | 0 mm | - | 774 W/m² | - |
| 1777224701 | 17.22° C | 50% | 1020.1 hPa | 0 mm | - | 765 W/m² | - |
| 1777224401 | 17.78° C | 45% | 1020.1 hPa | 0 mm | - | 779 W/m² | - |
| 1777224098 | 17.22° C | 48% | 1020.1 hPa | 0 mm | - | 777 W/m² | - |
| 1777223795 | 17.78° C | 47% | 1020.3 hPa | 0 mm | - | 776 W/m² | - |
| 1777223491 | 16.67° C | 52% | 1020.5 hPa | 0 mm | - | 796 W/m² | - |
| 1777223188 | 16.67° C | 49% | 1020.3 hPa | 0 mm | - | 775 W/m² | - |
| 1777222886 | 16.11° C | 53% | 1020.5 hPa | 0 mm | - | 793 W/m² | - |
| 1777222583 | 16.67° C | 51% | 1020.5 hPa | 0 mm | - | 783 W/m² | - |
| 1777222280 | 16.11° C | 51% | 1020.7 hPa | 0 mm | - | 778 W/m² | - |
* Rain latest hour (hover to see other rain measurements)
** Current wind speed in m/s (hover to see current wind gust speed)